Location: Cartigny
(49.9121°N, 3.0126°E)
Time: 00:46:24
(UTC+00:00)

Daily predictions for brighter satellites

Satellite Brightness Start Highest point End
(mag) Time Altitude Azimuth Time Altitude Azimuth Time Altitude Azimuth
CENTAUR R/B 3.9 02:45:10 46° ENE 02:45:10 46° ENE 02:52:15 10° ESE
USA 238 DEB 4.4 03:18:26 52° ESE 03:18:26 52° ESE 03:24:02 10° SE
USA 238 4.4 03:18:30 53° ESE 03:18:30 53° ESE 03:24:07 10° SE
Lacrosse 4 Rocket 4.4 03:22:25 14° ENE 03:22:25 14° ENE 03:23:23 10° E
Cosmos 2297 Rocket 4.2 03:32:24 20° NNE 03:32:24 20° NNE 03:34:07 10° NNE
ALOS 4.2 03:35:34 10° NE 03:39:32 27° E 03:40:31 25° ESE
Cosmos 2263 Rocket 3.8 03:46:18 16° SSE 03:50:00 32° ESE 03:54:59 10° NE
SJ 16-02 4.1 03:58:39 10° SE 04:01:33 17° E 04:04:27 10° NE
ATLAS 3B R/B 3.6 03:59:42 35° N 04:01:42 42° NNE 04:08:24 10° ESE
Cosmos 1603 3.8 04:08:24 73° E 04:08:24 73° E 04:13:47 10° SE
FENGYUN 3A 4.3 04:06:26 10° NNE 04:11:46 55° E 04:17:03 10° S
COSMO-SKYMED 1 4.0 04:08:37 10° SE 04:12:34 35° ENE 04:13:49 29° NNE
Cosmos 1386 Rocket 4.5 04:11:20 10° S 04:17:44 86° E 04:24:08 10° N
Cosmos 1943 3.2 04:17:13 70° N 04:17:47 77° ENE 04:23:29 10° SSE
ADEOS 4.2 04:14:22 10° NNE 04:19:32 55° E 04:24:39 10° S
Cosmos 1933 4.4 04:21:47 45° E 04:21:47 45° E 04:25:14 10° SSE
NOSS 3-2 (C) 3.9 04:20:32 57° WNW 04:22:17 75° SW 04:30:44 10° SSE
ATLAS CENTAUR R/B 3.3 04:23:42 20° NE 04:23:42 20° NE 04:26:25 10° E
Cosmos 1777 Rocket 4.1 04:23:33 56° S 04:24:33 72° ESE 04:29:46 10° NNE
Cosmos 2344 4.5 04:22:17 28° NW 04:27:47 65° NE 04:39:55 10° ESE
Nadezhda 1 Rocket 4.0 04:28:56 60° WSW 04:28:56 60° WSW 04:34:30 10° S
Meteor 1-4 Rocket 4.0 04:31:52 34° E 04:31:52 34° E 04:34:43 10° SE
Cosmos 2084 4.5 04:33:09 39° SSE 04:33:09 39° SSE 04:36:06 10° SSE
SL-4 R/B 2.7 04:33:39 48° E 04:33:39 48° E 04:36:33 10° ENE
Cosmos 2082 4.3 04:35:29 40° NNW 04:35:29 40° NNW 04:39:50 10° NNE
Cosmos 1782 4.5 04:31:44 16° NNE 04:34:21 33° ENE 04:38:01 10° SE
Meteor 1-31 Rocket 3.5 04:30:37 10° NNE 04:34:25 52° E 04:35:13 43° SE
Cosmos 1538 Rocket 3.9 04:35:15 73° SW 04:35:15 73° SW 04:40:21 10° SSE
CENTAUR R/B 3.1 04:32:23 45° WNW 04:35:07 68° SW 04:43:51 10° SSE
Cosmos 2227 Rocket 3.6 04:40:17 24° NNW 04:40:17 24° NNW 04:43:24 10° NNE
Cosmos 158 Rocket 4.3 04:37:07 32° N 04:39:10 57° ENE 04:44:02 10° SE
Cosmos 2227 4.3 04:36:02 19° SSW 04:40:11 73° ESE 04:45:49 10° NNE
ARGOS Delta rocket 3.8 04:36:24 10° N 04:41:41 82° WNW 04:46:38 10° SSW
ATLAS 2AS CENTAUR R/B 3.8 04:37:32 10° SSW 04:45:08 51° ESE 04:52:40 10° NE
deb Chang Zheng 4 3.9 04:41:05 10° NNE 04:45:25 65° ESE 04:49:45 10° S
Cosmos 489 Rocket 4.5 04:45:09 49° WNW 04:46:28 59° WSW 04:52:39 10° S
NOSS 3-2 (A) 4.4 04:50:27 38° W 04:51:28 39° WSW 04:59:08 10° S
Gbstr 26 Del rocket 2.5 04:56:52 87° E 04:56:52 87° E 05:00:41 10° ESE
FALCON 9 DEB 3.7 04:57:31 51° NE 04:57:31 51° NE 05:00:22 10° ENE
Cosmos 1633 2.6 04:53:26 10° S 04:56:57 73° E 05:00:29 10° NNE
USA 307 3.1 04:57:31 54° NNW 04:57:39 55° NNW 05:01:55 10° ENE
Cosmos 1515 Rocket 4.4 04:53:47 10° N 04:58:08 50° ENE 05:02:29 10° SSE
Lacrosse 4 Rocket 1.3 04:58:45 65° NW 04:59:21 81° WSW 05:03:43 10° SSE
SKYMED 2 3.4 04:56:12 10° SSE 05:00:32 82° WSW 05:02:27 33° NNW
METEOR-M 4.0 04:57:32 10° NNE 05:02:54 75° WNW 05:08:13 10° SSW
USA 308 3.1 05:03:29 51° NNW 05:03:53 53° N 05:08:07 10° ENE
Cosmos 1184 Rocket 3.0 05:00:43 10° S 05:03:59 67° E 05:07:16 10° NNE
SAR-Lupe-4 3.9 05:01:06 10° S 05:03:59 52° SSW 05:03:59 52° SSW
USA 238 DEB 4.4 05:05:55 32° W 05:07:06 34° WSW 05:13:40 10° S
USA 238 4.4 05:06:00 32° W 05:07:13 34° WSW 05:13:47 10° S
Cosmos 2151 4.4 05:10:39 23° NNW 05:10:39 23° NNW 05:12:27 10° N
Cosmos 1461 3.6 05:09:38 41° WSW 05:09:45 41° WSW 05:14:01 10° S
Cosmos 1745 Rocket 4.3 05:07:56 19° SW 05:11:56 40° WNW 05:17:55 10° N
CZ-4B R/B 3.2 05:07:55 10° NNE 05:12:28 78° ESE 05:16:55 10° S
Meteor 1-26 Rocket 4.2 05:07:06 10° NNW 05:12:58 75° W 05:18:38 10° S
Cosmos 2297 Rocket 3.8 05:14:13 18° NNW 05:14:13 18° NNW 05:17:28 10° N
Cosmos 1151 Rocket 2.9 05:12:35 34° NNW 05:14:14 61° W 05:18:26 10° S
ALOS 2.5 05:12:41 10° N 05:17:06 43° WNW 05:18:59 28° WSW
Cosmos 1689 Rocket 3.1 05:14:40 10° S 05:16:25 33° S 05:16:25 33° S
H-2A R/B 3.6 05:16:06 10° NNE 05:19:57 51° E 05:23:45 10° S
BREEZE-M DEB (TANK) 4.0 05:16:31 27° W 05:20:36 55° SSW 05:23:57 10° SE
SAR-Lupe-1 4.4 05:18:21 10° S 05:21:35 44° WSW 05:21:35 44° WSW
CZ-4C R/B 3.3 05:19:32 10° SSW 05:24:13 44° ESE 05:29:49 10° NE
CZ-2C R/B 4.4 05:21:08 10° NNW 05:21:26 11° NNW 05:21:26 11° NNW
Cosmos 1328 Rocket 3.6 05:22:03 20° NNW 05:24:53 55° W 05:29:12 10° S
ERBS 2.3 05:25:08 53° NW 05:25:26 56° NNW 05:28:41 10° NE
Cosmos 2181 Rocket 4.0 05:19:29 10° NNW 05:25:38 60° W 05:31:39 10° S
CRYOSAT 2 4.3 05:21:01 10° S 05:25:47 58° W 05:30:37 10° NNW
BREEZE-M DEB (TANK) 3.9 05:25:50 20° SSW 05:27:19 34° SSE 05:31:06 10° E
Lacrosse 5 2.6 05:24:42 10° SSW 05:29:37 53° SE 05:34:33 10° ENE
Cosmos 2263 Rocket 2.3 05:28:12 10° SW 05:33:43 52° NW 05:39:18 10° NNE
USA 305 3.3 05:32:40 30° WNW 05:34:22 48° N 05:38:34 10° ENE
Meteor PRIRODA 3.5 05:30:51 10° N 05:34:35 68° WNW 05:38:16 10° SSW
PSLV R/B 4.2 05:31:45 10° S 05:35:45 46° W 05:38:31 18° NNW
Cosmos 1709 Rocket 4.3 05:31:28 10° SW 05:37:31 45° WNW 05:43:38 10° N
Meteor 2-3 Rocket 3.8 05:33:44 10° SSW 05:39:22 59° WNW 05:45:07 10° N
BREEZE-M DEB 4.3 05:31:43 20° WNW 05:39:37 60° SSW 05:43:21 10° SE
SJ 16-02 1.3 05:35:16 10° SW 05:39:39 61° WNW 05:44:04 10° NNE
Cosmos 923 Rocket 4.3 05:37:01 18° NW 05:40:40 47° WSW 05:45:44 10° S
Okean 3 Rocket 4.0 05:37:06 10° SW 05:41:10 38° WNW 05:45:19 10° N
ASTRO F (AKARI) 4.1 05:38:10 10° NNE 05:41:15 89° E 05:44:22 10° SSW
USA 306 3.4 05:40:35 26° WNW 05:42:39 48° N 05:46:50 10° ENE
Cosmos 1766 Rocket 4.0 05:38:40 10° SW 05:42:53 39° WNW 05:47:06 10° N
Cosmos 1862 4.0 05:39:29 10° S 05:43:27 57° E 05:47:27 10° NNE
Cosmos 2082 Rocket 4.2 05:41:58 10° N 05:46:07 20° NE 05:50:17 10° E
SJ-12 4.3 05:42:24 10° N 05:46:12 38° WNW 05:49:58 10° SW
Cosmos 1743 Rocket 3.8 05:42:48 10° S 05:47:14 77° E 05:51:44 10° NNE
COSMO-SKYMED 1 3.4 05:45:01 10° SSW 05:48:47 28° W 05:51:01 19° NW
Cosmos 1408 Rocket 3.7 05:47:20 10° SSW 05:51:43 54° WNW 05:56:07 10° N
FENGYUN 3A 4.5 05:47:15 10° N 05:51:48 28° WNW 05:56:19 10° WSW
CZ-2C R/B 3.3 05:46:43 10° SSE 05:52:06 58° ENE 05:57:24 10° N
ATLAS 3B R/B 2.8 05:46:58 15° NW 05:52:51 69° SW 05:59:58 10° SSE
Cosmos 990 Rocket 4.0 05:49:15 10° SSW 05:54:30 86° WNW 05:59:48 10° NNE
COSMOS 2406 4.5 05:52:28 10° NNW 05:57:49 38° NE 06:03:10 10° ESE
PSLV R/B 3.7 05:53:57 10° NNE 05:57:54 78° WNW 06:01:43 10° SSW
ADEOS 4.5 05:54:26 10° N 05:58:45 27° WNW 06:03:03 10° WSW
EO 1 Delta rocket 4.1 05:55:24 10° S 06:00:27 52° W 06:05:00 10° NNW
Cosmos 1943 4.5 05:59:05 17° WNW 06:01:12 20° W 06:05:15 10° SW
ATLAS CENTAUR R/B 1.1 05:59:53 16° NW 06:02:46 74° SW 06:06:39 10° SSE
Cosmos 1833 Rocket 4.1 05:58:24 10° NNW 06:03:33 34° NE 06:08:39 10° ESE
ATLAS 5 CENTAUR R/B 3.0 06:01:57 17° WNW 06:03:53 22° NW 06:06:02 10° NNE
Cosmos 2327 Rocket 4.5 05:58:49 10° S 06:04:56 88° E 06:11:03 10° N
Cosmos 2074 Rocket 4.0 05:59:43 10° SSW 06:05:52 64° WNW 06:12:03 10° N
Meteor 1-4 Rocket 4.0 06:06:06 17° W 06:06:16 17° W 06:08:31 10° SW
MOS 1 Rocket 3.6 06:01:57 10° S 06:06:33 49° W 06:11:29 10° NNW
Cosmos 1805 Rocket 4.1 06:02:41 10° S 06:07:03 63° E 06:11:29 10° NNE
Meteor 1-31 Rocket 4.2 06:05:54 10° NNW 06:08:27 17° WNW 06:10:32 12° W
NOAA 6 4.0 06:04:18 10° NNE 06:09:27 88° WNW 06:14:34 10° SSW
Cosmos 1680 Rocket 4.2 06:04:51 10° NW 06:09:41 36° WSW 06:14:29 10° SSW
Cosmos 1782 3.9 06:07:23 11° NW 06:10:31 24° W 06:13:48 10° SW
FALCON 9 DEB 4.2 06:07:49 10° SW 06:10:51 41° SSE 06:13:56 10° ENE
SMAP 3.5 06:06:45 10° NNE 06:11:25 68° ESE 06:16:03 10° S
SL-4 R/B 1.8 06:09:15 15° W 06:12:26 67° N 06:16:03 10° E
H-2A R/B 2.2 06:09:26 10° NNE 06:13:20 78° WNW 06:17:09 10° SSW
FALCON 9 DEB 4.0 06:10:21 10° SW 06:13:27 45° SSE 06:16:33 10° ENE
RESURS DK-1 2.3 06:11:16 10° SSW 06:15:26 84° WNW 06:19:37 10° NNE
NOSS 3-4 (A) 3.6 06:10:18 10° WSW 06:16:09 54° NW 06:22:32 10° NE
NOSS 3-4 (C) 3.6 06:10:25 10° WSW 06:16:17 54° NW 06:22:40 10° NE
Cosmos 2228 Rocket 3.2 06:15:30 10° NNW 06:19:48 51° W 06:24:05 10° S
Cosmos 2184 Rocket 4.2 06:13:50 10° SSW 06:19:59 54° WNW 06:26:15 10° N
Genesis I 3.4 06:16:48 10° SSW 06:20:36 72° SE 06:24:27 10° NE
Cosmos 405 Rocket 2.6 06:19:25 10° SSW 06:23:04 62° WNW 06:26:48 10° N
USA 234 3.5 06:16:54 10° ENE 06:23:29 78° SE 06:30:01 10° SW
Cosmos 1295 Rocket 4.4 06:18:15 10° S 06:24:20 84° W 06:30:28 10° N
Cosmos 2227 Rocket 4.2 06:23:31 10° NNW 06:24:39 11° NNW 06:25:46 10° N
CENTAUR R/B 4.5 06:19:36 11° WNW 06:24:50 20° WSW 06:30:33 10° SSW
Cosmos 1812 3.3 06:24:52 10° NNW 06:28:26 37° W 06:31:58 10° SSW
EXPRESS MD2 4.3 06:27:15 10° W 06:31:13 75° SSW 06:39:32 10° ESE
Cosmos 1633 4.5 06:31:39 10° WNW 06:32:16 10° WNW 06:32:52 10° NW
FALCON 9 DEB 3.6 06:29:49 10° SW 06:32:59 59° SSE 06:36:10 10° ENE
FALCON 9 DEB 3.6 06:30:47 10° WNW 06:34:12 51° N 06:37:36 10° E
Geosat 4.1 06:30:18 10° SSE 06:35:17 64° WSW 06:40:19 10° NW
ATLAS 2AS CENTAUR R/B 3.2 06:28:21 10° WSW 06:36:12 58° NW 06:43:52 10° NE
Lacrosse 4 Rocket 3.5 06:36:04 10° W 06:37:19 11° WSW 06:38:33 10° WSW
USA 307 3.3 06:33:55 10° WNW 06:38:09 53° N 06:42:23 10° E
EP 3 3.8 06:36:58 10° SW 06:38:57 66° SE 06:40:50 10° NE
USA-17 4.3 06:36:16 10° SW 06:39:51 85° NW 06:42:56 10° NE
YAOGAN 6 3.3 06:37:54 10° N 06:41:01 30° WNW 06:44:08 10° SW
Cosmos 372 Rocket 4.1 06:36:53 10° SSW 06:41:59 81° ESE 06:47:07 10° NNE
Cosmos 1633 Rocket 3.8 06:38:32 10° S 06:42:53 59° E 06:47:15 10° NNE
Gbstr 26 Del rocket 4.1 06:40:03 10° W 06:43:17 27° SW 06:46:45 10° SSE
Cosmos 1898 Rocket 3.9 06:39:05 10° SW 06:44:07 43° WNW 06:49:15 10° NNE
USA 308 3.3 06:40:09 10° WNW 06:44:24 54° NNE 06:48:38 10° E
Cosmos 1437 Rocket 3.2 06:40:56 10° NNW 06:44:32 40° W 06:48:04 10° SSW
